Other Public Products
Issued by NWS Charleston, SC

Current Version | Previous Version | Graphics & Text | Print | Product List | Glossary On
Versions: 1 2 3 4 5 6 7 8 9 10 11 12 13 14 15 16 17 18 19 20 21 22 23 24 25 26 27 28 29 30 31 32 33 34 35 36 37 38 39 40 41 42 43 44 45 46 47 48 49 50
792
FPUS82 KCHS 171312
OPUCHS

TEST...KCHS/KSAV Gateway Observations...TEST
National Weather Service Charleston SC
800 AM EST WED JAN 17 2018

NOTE: "fair" indicates few or no clouds below 12,000 feet with no
significant weather and/or obstructions to visibility.

SCZ050-WAZ558-NCZ071-TXZ119-213-PAZ071-DCZ001-FLZ074-172-MI076-
NYZ176-178-MAZ016-IL014-TNZ027-NJZ106-GAZ044-MD014-171400-

...Gateway Observations for Charleston International...

CITY           SKY/WX    TMP DP  RH WIND       PRES   REMARKS
Chas Airport   FAIR      35  33  92 CALM      30.23S
Seattle        CLOUDY    49  37  63 E8        30.00F
Charlotte      LGT SNOW  33  32  96 N12       30.24S VSB 1   WCI  24
Dallas DFW     CLOUDY    15   2  56 CALM      30.73R
Dallas Love    PTCLDY    15   3  59 CALM      30.76R
Philladelphia  LGT SNOW  32  28  85 NW12      30.32R VSB 1   WCI  23
Wash National  CLOUDY    25  15  66 N18G28    30.40R WCI  11
Baltimore      LGT SNOW  25  21  85 W12       30.36R FOG     WCI  14
Miami          MOCLDY    63  53  70 NW7       30.22R
Detroit        MOCLDY     6   3  87 SW8       30.47S WCI  -7
Newark         LGT SNOW  34  32  92 NW7       30.27R VSB 1   WCI  28
Laguardia      LGT SNOW  34  32  92 NW12      30.25S FOG     WCI  25
J F K          LGT RAIN  36  35  96 NW12      30.26R FOG     WCI  28
Boston Logan   LGT SNOW  32  32 100 NE5       30.30F VSB 1   WCI  27
Ft. Lauderdale MOCLDY    60  54  80 N8        30.20R
Chicago O`Hare FAIR       5   0  79 W7        30.52S WCI  -7
Chicago Midway FAIR       6   2  83 W6        30.53S WCI  -4
Houston Bush   FAIR      19  10  68 N13       30.74R WCI   6
Houston Hobby  FAIR      20  12  71 N14       30.73R WCI   7
Nashville      FLURRIES  10   4  76 N12G23    30.63R WCI  -5
Atlanta        FAIR      16   9  74 NW17      30.34S WCI   0

$$

GAZ044-118-TXZ119-213-NCZ071-DCZ001-MDZ014-506-PAZ021-071-NJZ106-
NYZ176-178-MAZ106-OHZ011-021-055-MIZ076-KYZ091-ILZ014-INZ047-
MNZ060-ONZ431-171400-

...Gateway Observations for Savannah International...

CITY           SKY/WX    TMP DP  RH WIND       PRES   REMARKS
Savannah Arpt  FAIR      34  33  96 W5        30.27R WCI  30
Atlanta        FAIR      16   9  74 NW17      30.34S WCI   0
Charlotte      LGT SNOW  33  32  96 N12       30.24S VSB 1   WCI  24
Dallas DFW     CLOUDY    15   2  56 CALM      30.73R
Houston Bush   FAIR      19  10  68 N13       30.74R WCI   6
Wash National  CLOUDY    25  15  66 N18G28    30.40R WCI  11
Wash Dulles    MOCLDY    22  15  75 N13G25    30.40R WCI  10
Baltimore      LGT SNOW  25  21  85 W12       30.36R FOG     WCI  14
Philadelphia   LGT SNOW  32  28  85 NW12      30.32R VSB 1   WCI  23
Newark         LGT SNOW  34  32  92 NW7       30.27R VSB 1   WCI  28
Laguardia      LGT SNOW  34  32  92 NW12      30.25S FOG     WCI  25
J F K          LGT RAIN  36  35  96 NW12      30.26R FOG     WCI  28
Boston         LGT SNOW  32  32 100 NE5       30.30F VSB 1   WCI  27
Pittsburg      LGT SNOW   4   1  88 VRB5      30.45F FOG     WCI  -5
Akron          LGT SNOW   5   0  79 SW6       30.45F WCI  -6
Cleveland      FLURRIES   8   3  80 SW8       30.50S WCI  -4
Cincinnati     LGT SNOW   8   5  87 W6        30.53S FOG     WCI  -2
Columbus       CLOUDY     8   5  89 SW5       30.53S WCI  -1
Detroit        MOCLDY     6   3  87 SW8       30.47S WCI  -7
Chicago O`Hare FAIR       5   0  79 W7        30.52S WCI  -7
Minneapolis    FAIR       4  -1  80 S6        30.36F WCI  -7
Indianapolis   FAIR       0  -3  87 W9        30.56R WCI -15
Toronto Canada PTCLDY     9   5  85 SW6       30.35F WCI  -1

$$




USA.gov is the U.S. government's official web portal to all federal, state and local government web resources and services.